^^

..:: Storico WU ::..




Lo storico viene creato da WUnderground con i dati che la stazione Meteomincio invia al loro server. L' aggiornamento viene fatto ogni 5 minuti circa, tuttavia possono esserci intervalli pił ampi a causa di errori, interruzioni di servizio o problemi nell' invio tramite FTP.


Storico stazione MeteoMincio
Giorno Sommario per Febbario 14, 2022 Unità:  Inglese    Metrico   Entrambi
Giorno Settimana Mese Anno
  Max: Min: Media:
Temperatura: 46.4 °F 35.6 °F 40.8 °F
Dew Point: 37.4 °F 28.4 °F 33.8 °F
Umidità: 82% 68% 76%
Velocità vento: 5.6mph 0mph 2.1mph
Raffica: 8.1mph - -
Direzione- - SE
Pressione: 30.2 in 30 in -
Precipitazioni: 0 in    
 
 
Tabulato Dati per Febbario 14, 2022
Ora Temperatura Dew Point Pressione Direzione Velocità vento Raffica Umidità Intensità pioggia (oraria) Info solare Situazione
00:04 39.2 °F 30.2 °F 30.2 in ENE 3.7 mph 5 mph 72% 0 in 0.00 W/m2 unknown
00:09 39.2 °F 30.2 °F 30.2 in ENE 3.7 mph 5 mph 72% 0 in 0.00 W/m2 unknown
00:14 39.2 °F 30.2 °F 30.2 in ENE 3.1 mph 5 mph 74% 0 in 0.00 W/m2 unknown
00:19 37.4 °F 30.2 °F 30.2 in ENE 2.5 mph 3.7 mph 75% 0 in 0.00 W/m2 unknown
00:24 37.4 °F 30.2 °F 30.2 in ENE 3.1 mph 3.7 mph 75% 0 in 0.00 W/m2 unknown
00:29 37.4 °F 30.2 °F 30.2 in ENE 2.5 mph 3.7 mph 75% 0 in 0.00 W/m2 unknown
00:34 37.4 °F 30.2 °F 30.2 in NNE 1.9 mph 3.7 mph 75% 0 in 0.00 W/m2 unknown
00:39 37.4 °F 32 °F 30.2 in NNE 2.5 mph 3.7 mph 75% 0 in 0.00 W/m2 unknown
00:44 39.2 °F 30.2 °F 30.2 in NE 3.7 mph 6.8 mph 74% 0 in 0.00 W/m2 unknown
00:49 39.2 °F 30.2 °F 30.2 in NE 5 mph 8.1 mph 72% 0 in 0.00 W/m2 unknown
00:54 39.2 °F 30.2 °F 30.2 in NE 5.6 mph 8.1 mph 72% 0 in 0.00 W/m2 unknown
00:59 39.2 °F 30.2 °F 30.2 in NE 5.6 mph 8.1 mph 73% 0 in 0.00 W/m2 unknown
01:04 37.4 °F 30.2 °F 30.2 in NE 5 mph 8.1 mph 73% 0 in 0.00 W/m2 unknown
01:09 37.4 °F 30.2 °F 30.2 in NE 4.3 mph 8.1 mph 73% 0 in 0.00 W/m2 unknown
01:14 37.4 °F 30.2 °F 30.2 in NE 3.7 mph 5 mph 73% 0 in 0.00 W/m2 unknown
01:19 37.4 °F 30.2 °F 30.2 in ENE 3.1 mph 3.7 mph 74% 0 in 0.00 W/m2 unknown
01:24 37.4 °F 30.2 °F 30.2 in ENE 1.9 mph 3.7 mph 75% 0 in 0.00 W/m2 unknown
01:29 37.4 °F 30.2 °F 30.2 in ENE 1.9 mph 3.1 mph 76% 0 in 0.00 W/m2 unknown
01:34 37.4 °F 30.2 °F 30.2 in ENE 1.9 mph 2.5 mph 76% 0 in 0.00 W/m2 unknown
01:39 37.4 °F 30.2 °F 30.2 in ENE 1.2 mph 2.5 mph 75% 0 in 0.00 W/m2 unknown
01:44 37.4 °F 30.2 °F 30.2 in NE 1.2 mph 2.5 mph 76% 0 in 0.00 W/m2 unknown
01:49 37.4 °F 30.2 °F 30.2 in NE 1.9 mph 3.7 mph 76% 0 in 0.00 W/m2 unknown
01:54 37.4 °F 30.2 °F 30.2 in NNE 2.5 mph 3.7 mph 77% 0 in 0.00 W/m2 unknown
01:59 37.4 °F 30.2 °F 30.2 in NE 3.1 mph 3.7 mph 76% 0 in 0.00 W/m2 unknown
02:04 37.4 °F 30.2 °F 30.2 in NE 3.1 mph 3.7 mph 76% 0 in 0.00 W/m2 unknown
02:09 37.4 °F 30.2 °F 30.2 in ENE 3.1 mph 3.7 mph 76% 0 in 0.00 W/m2 unknown
02:14 37.4 °F 28.4 °F 30.2 in NE 3.1 mph 3.7 mph 75% 0 in 0.00 W/m2 unknown
02:19 37.4 °F 28.4 °F 30.2 in ENE 1.9 mph 3.7 mph 75% 0 in 0.00 W/m2 unknown
02:24 35.6 °F 28.4 °F 30.2 in ENE 3.1 mph 3.7 mph 75% 0 in 0.00 W/m2 unknown
02:29 35.6 °F 28.4 °F 30.2 in NE 3.7 mph 3.7 mph 76% 0 in 0.00 W/m2 unknown
02:34 35.6 °F 28.4 °F 30.2 in NE 3.7 mph 3.7 mph 77% 0 in 0.00 W/m2 unknown
02:39 35.6 °F 28.4 °F 30.2 in NE 3.7 mph 3.7 mph 77% 0 in 0.00 W/m2 unknown
02:44 35.6 °F 28.4 °F 30.2 in NE 3.1 mph 3.7 mph 77% 0 in 0.00 W/m2 unknown
02:49 35.6 °F 28.4 °F 30.2 in NE 2.5 mph 3.7 mph 77% 0 in 0.00 W/m2 unknown
02:54 35.6 °F 28.4 °F 30.2 in NE 2.5 mph 3.7 mph 77% 0 in 0.00 W/m2 unknown
02:59 35.6 °F 28.4 °F 30.2 in NE 2.5 mph 3.7 mph 77% 0 in 0.00 W/m2 unknown
03:04 35.6 °F 28.4 °F 30.2 in NNE 2.5 mph 3.7 mph 78% 0 in 0.00 W/m2 unknown
03:09 35.6 °F 28.4 °F 30.2 in NNE 2.5 mph 3.7 mph 78% 0 in 0.00 W/m2 unknown
03:14 35.6 °F 28.4 °F 30.2 in NNE 1.9 mph 3.1 mph 78% 0 in 0.00 W/m2 unknown
03:19 35.6 °F 28.4 °F 30.2 in NNE 1.9 mph 3.7 mph 78% 0 in 0.00 W/m2 unknown
03:24 35.6 °F 30.2 °F 30.2 in North 2.5 mph 3.7 mph 78% 0 in 0.00 W/m2 unknown
03:29 35.6 °F 30.2 °F 30.2 in North 2.5 mph 3.7 mph 78% 0 in 0.00 W/m2 unknown
03:34 35.6 °F 30.2 °F 30.2 in NNE 3.1 mph 3.7 mph 77% 0 in 0.00 W/m2 unknown
03:39 35.6 °F 30.2 °F 30.2 in NNE 3.1 mph 5 mph 76% 0 in 0.00 W/m2 unknown
03:44 35.6 °F 28.4 °F 30.2 in NNE 3.7 mph 5 mph 75% 0 in 0.00 W/m2 unknown
03:49 37.4 °F 30.2 °F 30.2 in NNE 3.1 mph 5 mph 75% 0 in 0.00 W/m2 unknown
03:54 37.4 °F 30.2 °F 30.2 in NNE 3.1 mph 5 mph 75% 0 in 0.00 W/m2 unknown
03:59 37.4 °F 28.4 °F 30.2 in NE 3.7 mph 5 mph 75% 0 in 0.00 W/m2 unknown
04:04 37.4 °F 28.4 °F 30.1 in NE 3.1 mph 5 mph 75% 0 in 0.00 W/m2 unknown
04:09 35.6 °F 28.4 °F 30.1 in NE 3.7 mph 5 mph 75% 0 in 0.00 W/m2 unknown
04:14 35.6 °F 30.2 °F 30.1 in NE 3.7 mph 5 mph 76% 0 in 0.00 W/m2 unknown
04:19 35.6 °F 30.2 °F 30.1 in NE 3.7 mph 5 mph 76% 0 in 0.00 W/m2 unknown
04:24 35.6 °F 30.2 °F 30.1 in NE 3.7 mph 5 mph 76% 0 in 0.00 W/m2 unknown
04:29 35.6 °F 30.2 °F 30.1 in NE 3.7 mph 5 mph 76% 0 in 0.00 W/m2 unknown
04:34 37.4 °F 28.4 °F 30.1 in NE 4.3 mph 6.8 mph 75% 0 in 0.00 W/m2 unknown
04:39 37.4 °F 30.2 °F 30.1 in ENE 5 mph 6.8 mph 75% 0 in 0.00 W/m2 unknown
04:44 37.4 °F 30.2 °F 30.1 in ENE 4.3 mph 6.8 mph 76% 0 in 0.00 W/m2 unknown
04:49 37.4 °F 30.2 °F 30.1 in ENE 3.1 mph 5 mph 77% 0 in 0.00 W/m2 unknown
04:54 35.6 °F 30.2 °F 30.1 in ENE 3.1 mph 5 mph 78% 0 in 0.00 W/m2 unknown
04:59 35.6 °F 30.2 °F 30.1 in ENE 3.1 mph 5 mph 78% 0 in 0.00 W/m2 unknown
05:04 35.6 °F 30.2 °F 30.1 in ENE 3.1 mph 3.7 mph 77% 0 in 0.00 W/m2 unknown
05:09 35.6 °F 30.2 °F 30.1 in ENE 3.1 mph 3.7 mph 78% 0 in 0.00 W/m2 unknown
05:14 35.6 °F 30.2 °F 30.1 in ENE 3.1 mph 3.7 mph 78% 0 in 0.00 W/m2 unknown
05:19 35.6 °F 30.2 °F 30.1 in ENE 2.5 mph 3.7 mph 78% 0 in 0.00 W/m2 unknown
05:24 35.6 °F 30.2 °F 30.1 in ENE 3.1 mph 3.7 mph 78% 0 in 0.00 W/m2 unknown
05:29 37.4 °F 30.2 °F 30.1 in ENE 2.5 mph 3.7 mph 77% 0 in 0.00 W/m2 unknown
05:34 35.6 °F 30.2 °F 30.1 in East 3.1 mph 3.7 mph 79% 0 in 0.00 W/m2 unknown
05:39 35.6 °F 30.2 °F 30.1 in East 3.1 mph 3.7 mph 79% 0 in 0.00 W/m2 unknown
05:44 35.6 °F 30.2 °F 30.1 in East 2.5 mph 3.7 mph 79% 0 in 0.00 W/m2 unknown
05:49 35.6 °F 30.2 °F 30.1 in ENE 2.5 mph 3.7 mph 79% 0 in 0.00 W/m2 unknown
05:54 37.4 °F 30.2 °F 30.1 in ENE 2.5 mph 3.7 mph 78% 0 in 0.00 W/m2 unknown
05:59 37.4 °F 30.2 °F 30.1 in NE 3.1 mph 3.7 mph 78% 0 in 0.00 W/m2 unknown
06:04 37.4 °F 30.2 °F 30.1 in NE 2.5 mph 3.7 mph 76% 0 in 0.00 W/m2 unknown
06:09 37.4 °F 30.2 °F 30.1 in NE 2.5 mph 3.7 mph 76% 0 in 0.00 W/m2 unknown
06:14 37.4 °F 30.2 °F 30.1 in NE 2.5 mph 3.7 mph 75% 0 in 0.00 W/m2 unknown
06:19 37.4 °F 30.2 °F 30.1 in ENE 2.5 mph 3.7 mph 77% 0 in 0.00 W/m2 unknown
06:24 37.4 °F 30.2 °F 30.1 in ENE 2.5 mph 3.7 mph 78% 0 in 0.00 W/m2 unknown
06:29 37.4 °F 30.2 °F 30.1 in East 1.2 mph 3.1 mph 78% 0 in 0.00 W/m2 unknown
06:34 37.4 °F 30.2 °F 30.1 in East 1.2 mph 1.9 mph 78% 0 in 0.00 W/m2 unknown
06:39 37.4 °F 30.2 °F 30.1 in East 0.6 mph 1.2 mph 78% 0 in 0.00 W/m2 unknown
06:44 37.4 °F 32 °F 30.1 in NNE 1.2 mph 2.5 mph 78% 0 in 0.00 W/m2 unknown
06:49 37.4 °F 32 °F 30.1 in Calm   1.9 mph 78% 0 in 0.00 W/m2 unknown
06:54 37.4 °F 32 °F 30.1 in NNE 3.1 mph 3.7 mph 78% 0 in 0.00 W/m2 unknown
06:59 37.4 °F 30.2 °F 30.1 in NNE 3.1 mph 3.7 mph 77% 0 in 0.00 W/m2 unknown
07:04 37.4 °F 30.2 °F 30.1 in Calm   3.1 mph 76% 0 in 0.00 W/m2 unknown
07:09 37.4 °F 30.2 °F 30.1 in Calm     75% 0 in 0.00 W/m2 unknown
07:14 37.4 °F 30.2 °F 30.1 in Calm     75% 0 in 0.00 W/m2 unknown
07:19 37.4 °F 30.2 °F 30.1 in Calm     75% 0 in 0.00 W/m2 unknown
07:24 37.4 °F 30.2 °F 30.1 in Calm     75% 0 in 0.00 W/m2 unknown
07:29 37.4 °F 30.2 °F 30.1 in NW 1.2 mph 2.5 mph 76% 0 in 0.00 W/m2 unknown
07:34 37.4 °F 32 °F 30.1 in NW 1.2 mph 1.9 mph 77% 0 in 0.00 W/m2 unknown
07:39 37.4 °F 30.2 °F 30.1 in Calm   1.2 mph 77% 0 in 0.00 W/m2 unknown
07:44 37.4 °F 32 °F 30.1 in Calm     78% 0 in 0.00 W/m2 unknown
07:49 37.4 °F 32 °F 30.1 in Calm     78% 0 in 0.00 W/m2 unknown
07:54 37.4 °F 32 °F 30.1 in West 0.6 mph 1.9 mph 78% 0 in 0.00 W/m2 unknown
07:59 37.4 °F 32 °F 30.1 in West 1.2 mph 2.5 mph 78% 0 in 5.00 W/m2 unknown
08:04 37.4 °F 32 °F 30.1 in West 1.2 mph 2.5 mph 78% 0 in 7.00 W/m2 unknown
08:09 37.4 °F 32 °F 30.1 in West 1.2 mph 2.5 mph 78% 0 in 11.00 W/m2 unknown
08:14 37.4 °F 32 °F 30.1 in West 1.2 mph 2.5 mph 78% 0 in 12.00 W/m2 unknown
08:19 37.4 °F 32 °F 30.1 in West 1.2 mph 1.2 mph 78% 0 in 12.00 W/m2 unknown
08:24 37.4 °F 32 °F 30.1 in Calm   1.2 mph 77% 0 in 16.00 W/m2 unknown
08:29 37.4 °F 32 °F 30.1 in Calm   1.2 mph 78% 0 in 21.00 W/m2 unknown
08:34 37.4 °F 32 °F 30.1 in West 1.2 mph 2.5 mph 78% 0 in 21.00 W/m2 unknown
08:39 37.4 °F 32 °F 30.1 in West 1.2 mph 2.5 mph 78% 0 in 23.00 W/m2 unknown
08:44 37.4 °F 32 °F 30.1 in SW 1.9 mph 2.5 mph 77% 0 in 25.00 W/m2 unknown
08:49 37.4 °F 32 °F 30.1 in SW 1.9 mph 2.5 mph 77% 0 in 28.00 W/m2 unknown
08:54 39.2 °F 32 °F 30.1 in SSW 1.2 mph 2.5 mph 77% 0 in 28.00 W/m2 unknown
08:59 39.2 °F 32 °F 30.1 in Calm   1.9 mph 77% 0 in 30.00 W/m2 unknown
09:04 39.2 °F 32 °F 30.1 in Calm     77% 0 in 32.00 W/m2 unknown
09:09 39.2 °F 32 °F 30.1 in Calm     77% 0 in 33.00 W/m2 unknown
09:14 39.2 °F 32 °F 30.1 in Calm     77% 0 in 35.00 W/m2 unknown
09:19 39.2 °F 32 °F 30.1 in Calm     76% 0 in 32.00 W/m2 unknown
09:24 39.2 °F 32 °F 30.1 in Calm     76% 0 in 30.00 W/m2 unknown
09:29 39.2 °F 32 °F 30.1 in Calm     77% 0 in 47.00 W/m2 unknown
09:34 39.2 °F 32 °F 30.1 in Calm     76% 0 in 47.00 W/m2 unknown
09:39 39.2 °F 32 °F 30.1 in West 1.2 mph 2.5 mph 76% 0 in 44.00 W/m2 unknown
09:44 39.2 °F 32 °F 30.1 in WNW 1.9 mph 3.7 mph 77% 0 in 53.00 W/m2 unknown
09:49 39.2 °F 33.8 °F 30.1 in West 1.2 mph 3.1 mph 78% 0 in 62.00 W/m2 unknown
09:54 39.2 °F 33.8 °F 30.1 in West 1.2 mph 2.5 mph 78% 0 in 60.00 W/m2 unknown
09:59 39.2 °F 33.8 °F 30.1 in WNW 1.2 mph 2.5 mph 77% 0 in 60.00 W/m2 unknown
10:04 39.2 °F 32 °F 30.1 in West 1.9 mph 3.7 mph 76% 0 in 58.00 W/m2 unknown
10:09 39.2 °F 32 °F 30.1 in West 1.9 mph 3.7 mph 76% 0 in 54.00 W/m2 unknown
10:14 39.2 °F 32 °F 30.1 in WSW 2.5 mph 3.7 mph 76% 0 in 46.00 W/m2 unknown
10:19 39.2 °F 32 °F 30.1 in West 2.5 mph 3.7 mph 76% 0 in 46.00 W/m2 unknown
10:24 39.2 °F 33.8 °F 30.1 in WSW 1.9 mph 3.7 mph 77% 0 in 60.00 W/m2 unknown
10:29 39.2 °F 33.8 °F 30.1 in WSW 2.5 mph 3.7 mph 77% 0 in 65.00 W/m2 unknown
10:34 39.2 °F 33.8 °F 30.1 in WSW 1.9 mph 3.7 mph 77% 0 in 63.00 W/m2 unknown
10:39 41 °F 33.8 °F 30.1 in WSW 1.9 mph 3.7 mph 77% 0 in 69.00 W/m2 unknown
10:44 41 °F 33.8 °F 30.1 in WSW 3.1 mph 3.7 mph 78% 0 in 74.00 W/m2 unknown
10:49 41 °F 33.8 °F 30.1 in WSW 2.5 mph 3.7 mph 78% 0 in 84.00 W/m2 unknown
10:54 41 °F 33.8 °F 30.1 in WSW 2.5 mph 3.7 mph 79% 0 in 95.00 W/m2 unknown
10:59 41 °F 35.6 °F 30.1 in SW 3.1 mph 3.7 mph 80% 0 in 95.00 W/m2 unknown
11:04 41 °F 33.8 °F 30.1 in WSW 2.5 mph 3.7 mph 78% 0 in 93.00 W/m2 unknown
11:09 41 °F 33.8 °F 30.1 in WSW 3.1 mph 3.7 mph 78% 0 in 95.00 W/m2 unknown
11:14 41 °F 33.8 °F 30.1 in WSW 3.1 mph 3.7 mph 78% 0 in 95.00 W/m2 unknown
11:19 41 °F 33.8 °F 30.1 in West 2.5 mph 3.7 mph 78% 0 in 95.00 W/m2 unknown
11:24 41 °F 33.8 °F 30.1 in West 1.9 mph 3.1 mph 76% 0 in 95.00 W/m2 unknown
11:29 41 °F 33.8 °F 30.1 in West 2.5 mph 3.7 mph 77% 0 in 127.00 W/m2 unknown
11:34 41 °F 35.6 °F 30.1 in WSW 1.9 mph 3.7 mph 78% 0 in 151.00 W/m2 unknown
11:39 41 °F 35.6 °F 30.1 in SW 1.2 mph 3.1 mph 78% 0 in 151.00 W/m2 unknown
11:44 42.8 °F 35.6 °F 30.1 in West 2.5 mph 3.7 mph 77% 0 in 142.00 W/m2 unknown
11:49 42.8 °F 35.6 °F 30.1 in WSW 3.1 mph 3.7 mph 77% 0 in 142.00 W/m2 unknown
11:54 42.8 °F 35.6 °F 30.1 in West 3.1 mph 3.7 mph 77% 0 in 155.00 W/m2 unknown
11:59 42.8 °F 35.6 °F 30.1 in West 2.5 mph 3.7 mph 77% 0 in 179.00 W/m2 unknown
12:04 42.8 °F 35.6 °F 30.1 in WSW 1.9 mph 3.7 mph 77% 0 in 179.00 W/m2 unknown
12:09 42.8 °F 35.6 °F 30.1 in WNW 2.5 mph 3.7 mph 76% 0 in 171.00 W/m2 unknown
12:14 42.8 °F 35.6 °F 30.1 in WSW 3.1 mph 3.7 mph 76% 0 in 211.00 W/m2 unknown
12:19 42.8 °F 35.6 °F 30.1 in West 2.5 mph 3.7 mph 76% 0 in 214.00 W/m2 unknown
12:24 42.8 °F 35.6 °F 30.1 in West 0.6 mph 2.5 mph 75% 0 in 163.00 W/m2 unknown
12:29 42.8 °F 37.4 °F 30.1 in West 2.5 mph 3.7 mph 77% 0 in 171.00 W/m2 unknown
12:34 42.8 °F 35.6 °F 30.1 in WSW 2.5 mph 3.7 mph 75% 0 in 169.00 W/m2 unknown
12:39 42.8 °F 35.6 °F 30.1 in SW 3.1 mph 3.7 mph 75% 0 in 178.00 W/m2 unknown
12:44 42.8 °F 37.4 °F 30.1 in SSW 1.9 mph 3.7 mph 77% 0 in 211.00 W/m2 unknown
12:49 44.6 °F 37.4 °F 30.1 in WSW 3.1 mph 3.7 mph 76% 0 in 292.00 W/m2 unknown
12:54 44.6 °F 37.4 °F 30.1 in SW 3.1 mph 3.7 mph 76% 0 in 374.00 W/m2 unknown
12:59 44.6 °F 37.4 °F 30.1 in West 2.5 mph 3.7 mph 76% 0 in 374.00 W/m2 unknown
13:04 44.6 °F 37.4 °F 30.1 in WNW 1.9 mph 3.1 mph 76% 0 in 357.00 W/m2 unknown
13:09 44.6 °F 37.4 °F 30.1 in SW 5 mph 6.8 mph 76% 0 in 250.00 W/m2 unknown
13:14 44.6 °F 37.4 °F 30.1 in WSW 5.6 mph 6.8 mph 76% 0 in 401.00 W/m2 unknown
13:19 44.6 °F 37.4 °F 30.1 in WSW 2.5 mph 6.8 mph 74% 0 in 332.00 W/m2 unknown
13:24 44.6 °F 37.4 °F 30.1 in SW 3.7 mph 5 mph 74% 0 in 492.00 W/m2 unknown
13:29 44.6 °F 37.4 °F 30.1 in SW 3.7 mph 6.2 mph 74% 0 in 538.00 W/m2 unknown
13:34 44.6 °F 37.4 °F 30.1 in WSW 3.7 mph 6.2 mph 74% 0 in 418.00 W/m2 unknown
13:39 44.6 °F 37.4 °F 30.1 in SW 2.5 mph 5 mph 73% 0 in 578.00 W/m2 unknown
13:44 44.6 °F 37.4 °F 30.1 in NW 1.9 mph 3.7 mph 73% 0 in 578.00 W/m2 unknown
13:49 46.4 °F 37.4 °F 30.1 in WNW 3.1 mph 6.2 mph 72% 0 in 504.00 W/m2 unknown
13:54 46.4 °F 37.4 °F 30.1 in West 4.3 mph 6.2 mph 71% 0 in 253.00 W/m2 unknown
13:59 46.4 °F 37.4 °F 30.1 in WSW 2.5 mph 6.2 mph 71% 0 in 311.00 W/m2 unknown
14:04 46.4 °F 37.4 °F 30.1 in SW 4.3 mph 5 mph 71% 0 in 218.00 W/m2 unknown
14:09 46.4 °F 37.4 °F 30.1 in WSW 4.3 mph 6.2 mph 71% 0 in 188.00 W/m2 unknown
14:14 46.4 °F 35.6 °F 30.1 in SSW 3.7 mph 6.2 mph 70% 0 in 253.00 W/m2 unknown
14:19 46.4 °F 35.6 °F 30.1 in WNW 3.7 mph 5 mph 70% 0 in 316.00 W/m2 unknown
14:24 46.4 °F 35.6 °F 30.1 in NW 3.1 mph 5 mph 69% 0 in 316.00 W/m2 unknown
14:29 46.4 °F 35.6 °F 30.1 in NNW 1.9 mph 3.7 mph 68% 0 in 192.00 W/m2 unknown
14:34 46.4 °F 37.4 °F 30.1 in NNW 1.2 mph 3.1 mph 71% 0 in 149.00 W/m2 unknown
14:39 46.4 °F 35.6 °F 30.1 in NW 1.9 mph 2.5 mph 69% 0 in 125.00 W/m2 unknown
14:44 46.4 °F 35.6 °F 30.1 in WNW 3.7 mph 5 mph 69% 0 in 120.00 W/m2 unknown
14:49 46.4 °F 35.6 °F 30.1 in WSW 3.1 mph 5 mph 69% 0 in 137.00 W/m2 unknown
14:54 46.4 °F 35.6 °F 30.1 in WSW 3.1 mph 3.7 mph 69% 0 in 160.00 W/m2 unknown
14:59 46.4 °F 35.6 °F 30.1 in WNW 2.5 mph 3.7 mph 69% 0 in 172.00 W/m2 unknown
15:04 46.4 °F 35.6 °F 30.1 in West 1.9 mph 3.1 mph 69% 0 in 134.00 W/m2 unknown
15:09 44.6 °F 35.6 °F 30.1 in West 0.6 mph 1.9 mph 69% 0 in 93.00 W/m2 unknown
15:14 44.6 °F 35.6 °F 30 in WSW 1.9 mph 3.1 mph 69% 0 in 111.00 W/m2 unknown
15:19 46.4 °F 35.6 °F 30.1 in West 3.1 mph 3.7 mph 70% 0 in 120.00 W/m2 unknown
15:24 46.4 °F 35.6 °F 30.1 in West 3.1 mph 3.7 mph 69% 0 in 232.00 W/m2 unknown
15:29 46.4 °F 37.4 °F 30 in SW 3.7 mph 5 mph 70% 0 in 294.00 W/m2 unknown
15:34 46.4 °F 37.4 °F 30 in SW 3.1 mph 5 mph 70% 0 in 255.00 W/m2 unknown
15:39 46.4 °F 35.6 °F 30 in SSW 1.9 mph 3.7 mph 69% 0 in 174.00 W/m2 unknown
15:44 46.4 °F 35.6 °F 30 in West 3.1 mph 3.7 mph 69% 0 in 199.00 W/m2 unknown
15:49 46.4 °F 35.6 °F 30 in West 2.5 mph 3.7 mph 69% 0 in 146.00 W/m2 unknown
15:54 46.4 °F 37.4 °F 30 in West 1.2 mph 3.1 mph 70% 0 in 104.00 W/m2 unknown
15:59 46.4 °F 37.4 °F 30 in WSW 2.5 mph 3.7 mph 70% 0 in 79.00 W/m2 unknown
16:04 46.4 °F 37.4 °F 30 in SW 1.9 mph 3.7 mph 70% 0 in 84.00 W/m2 unknown
16:09 46.4 °F 35.6 °F 30 in SW 1.2 mph 3.1 mph 69% 0 in 91.00 W/m2 unknown
16:14 46.4 °F 35.6 °F 30 in SW 3.1 mph 3.7 mph 70% 0 in 100.00 W/m2 unknown
16:19 46.4 °F 37.4 °F 30 in SSW 3.1 mph 3.7 mph 70% 0 in 69.00 W/m2 unknown
16:24 46.4 °F 35.6 °F 30 in West 2.5 mph 3.7 mph 70% 0 in 37.00 W/m2 unknown
16:29 46.4 °F 35.6 °F 30 in West 1.2 mph 3.1 mph 70% 0 in 30.00 W/m2 unknown
16:34 44.6 °F 35.6 °F 30 in WSW 1.9 mph 3.7 mph 70% 0 in 25.00 W/m2 unknown
16:39 44.6 °F 35.6 °F 30 in SW 2.5 mph 3.7 mph 70% 0 in 19.00 W/m2 unknown
16:44 44.6 °F 35.6 °F 30 in SW 1.9 mph 3.7 mph 70% 0 in 16.00 W/m2 unknown
16:49 46.4 °F 35.6 °F 30 in SSW 1.9 mph 3.7 mph 70% 0 in 26.00 W/m2 unknown
16:54 44.6 °F 35.6 °F 30 in SSE 1.2 mph 3.1 mph 70% 0 in 26.00 W/m2 unknown
16:59 44.6 °F 35.6 °F 30 in SSE 1.2 mph 2.5 mph 71% 0 in 21.00 W/m2 unknown
17:04 44.6 °F 35.6 °F 30 in Calm   1.9 mph 71% 0 in 19.00 W/m2 unknown
17:09 44.6 °F 37.4 °F 30 in Calm     72% 0 in 18.00 W/m2 unknown
17:14 44.6 °F 37.4 °F 30 in Calm     72% 0 in 16.00 W/m2 unknown
17:19 44.6 °F 37.4 °F 30 in Calm     73% 0 in 14.00 W/m2 unknown
17:24 44.6 °F 37.4 °F 30 in Calm     76% 0 in 12.00 W/m2 unknown
17:29 44.6 °F 37.4 °F 30 in Calm     73% 0 in 11.00 W/m2 unknown
17:34 44.6 °F 35.6 °F 30 in Calm     72% 0 in 9.00 W/m2 unknown
17:39 44.6 °F 35.6 °F 30 in Calm     72% 0 in 5.00 W/m2 unknown
17:44 44.6 °F 35.6 °F 30 in Calm     72% 0 in 0.00 W/m2 unknown
17:49 44.6 °F 37.4 °F 30 in Calm     73% 0 in 0.00 W/m2 unknown
17:54 44.6 °F 37.4 °F 30 in Calm     74% 0 in 0.00 W/m2 unknown
17:59 44.6 °F 37.4 °F 30 in Calm     74% 0 in 0.00 W/m2 unknown
18:04 44.6 °F 37.4 °F 30 in Calm     74% 0 in 0.00 W/m2 unknown
18:09 44.6 °F 37.4 °F 30 in Calm     75% 0 in 0.00 W/m2 unknown
18:14 44.6 °F 37.4 °F 30 in Calm     76% 0 in 0.00 W/m2 unknown
18:19 42.8 °F 37.4 °F 30 in Calm     76% 0 in 0.00 W/m2 unknown
18:24 42.8 °F 37.4 °F 30 in Calm     77% 0 in 0.00 W/m2 unknown
18:29 42.8 °F 35.6 °F 30 in Calm     75% 0 in 0.00 W/m2 unknown
18:34 42.8 °F 35.6 °F 30 in SSE 1.9 mph 3.7 mph 76% 0 in 0.00 W/m2 unknown
18:39 42.8 °F 35.6 °F 30 in SSE 1.9 mph 3.1 mph 76% 0 in 0.00 W/m2 unknown
18:44 42.8 °F 35.6 °F 30 in SSE 0.6 mph 1.9 mph 76% 0 in 0.00 W/m2 unknown
18:49 42.8 °F 35.6 °F 30 in SSE 1.2 mph 1.9 mph 76% 0 in 0.00 W/m2 unknown
18:54 42.8 °F 35.6 °F 30 in ESE 2.5 mph 3.7 mph 76% 0 in 0.00 W/m2 unknown
18:59 42.8 °F 35.6 °F 30 in NE 2.5 mph 3.7 mph 76% 0 in 0.00 W/m2 unknown
19:04 42.8 °F 37.4 °F 30 in NNE 2.5 mph 3.7 mph 77% 0 in 0.00 W/m2 unknown
19:09 42.8 °F 37.4 °F 30 in Calm   3.1 mph 77% 0 in 0.00 W/m2 unknown
19:14 42.8 °F 37.4 °F 30 in NNE 1.2 mph 2.5 mph 76% 0 in 0.00 W/m2 unknown
19:19 44.6 °F 37.4 °F 30 in NE 1.9 mph 2.5 mph 77% 0 in 0.00 W/m2 unknown
19:24 44.6 °F 37.4 °F 30 in ENE 1.2 mph 2.5 mph 76% 0 in 0.00 W/m2 unknown
19:29 44.6 °F 37.4 °F 30 in ENE 1.2 mph 2.5 mph 77% 0 in 0.00 W/m2 unknown
19:34 42.8 °F 37.4 °F 30 in ENE 1.9 mph 2.5 mph 77% 0 in 0.00 W/m2 unknown
19:39 42.8 °F 37.4 °F 30 in ENE 1.9 mph 2.5 mph 77% 0 in 0.00 W/m2 unknown
19:44 42.8 °F 37.4 °F 30 in ENE 1.2 mph 2.5 mph 77% 0 in 0.00 W/m2 unknown
19:49 42.8 °F 37.4 °F 30 in ENE 1.9 mph 3.7 mph 78% 0 in 0.00 W/m2 unknown
19:54 42.8 °F 37.4 °F 30 in East 1.9 mph 3.7 mph 78% 0 in 0.00 W/m2 unknown
19:59 42.8 °F 37.4 °F 30 in East 1.9 mph 3.7 mph 79% 0 in 0.00 W/m2 unknown
20:04 42.8 °F 37.4 °F 30 in East 0.6 mph 1.9 mph 79% 0 in 0.00 W/m2 unknown
20:09 42.8 °F 37.4 °F 30 in East 1.2 mph 2.5 mph 80% 0 in 0.00 W/m2 unknown
20:14 42.8 °F 37.4 °F 30 in East 1.2 mph 2.5 mph 79% 0 in 0.00 W/m2 unknown
20:19 42.8 °F 37.4 °F 30 in East 1.2 mph 1.9 mph 79% 0 in 0.00 W/m2 unknown
20:24 42.8 °F 37.4 °F 30 in East 1.2 mph 2.5 mph 79% 0 in 0.00 W/m2 unknown
20:29 42.8 °F 37.4 °F 30 in East 2.5 mph 5 mph 79% 0 in 0.00 W/m2 unknown
20:34 42.8 °F 37.4 °F 30 in East 2.5 mph 5 mph 79% 0 in 0.00 W/m2 unknown
20:39 42.8 °F 37.4 °F 30 in East 1.9 mph 3.7 mph 79% 0 in 0.00 W/m2 unknown
20:44 42.8 °F 37.4 °F 30 in East 1.2 mph 3.1 mph 79% 0 in 0.00 W/m2 unknown
20:49 42.8 °F 37.4 °F 30 in East 2.5 mph 3.7 mph 79% 0 in 0.00 W/m2 unknown
20:54 42.8 °F 37.4 °F 30 in ENE 2.5 mph 3.7 mph 79% 0 in 0.00 W/m2 unknown
20:59 42.8 °F 37.4 °F 30 in East 1.9 mph 3.7 mph 79% 0 in 0.00 W/m2 unknown
21:04 42.8 °F 37.4 °F 30 in East 1.2 mph 2.5 mph 80% 0 in 0.00 W/m2 unknown
21:09 42.8 °F 37.4 °F 30 in ENE 1.2 mph 2.5 mph 80% 0 in 0.00 W/m2 unknown
21:14 42.8 °F 37.4 °F 30 in Calm   1.9 mph 80% 0 in 0.00 W/m2 unknown
21:19 42.8 °F 37.4 °F 30 in Calm     80% 0 in 0.00 W/m2 unknown
21:24 42.8 °F 37.4 °F 30 in Calm     81% 0 in 0.00 W/m2 unknown
21:29 42.8 °F 37.4 °F 30 in Calm     81% 0 in 0.00 W/m2 unknown
21:34 42.8 °F 37.4 °F 30 in Calm     80% 0 in 0.00 W/m2 unknown
21:39 42.8 °F 37.4 °F 30 in ENE 1.2 mph 2.5 mph 80% 0 in 0.00 W/m2 unknown
21:44 42.8 °F 37.4 °F 30 in ENE 1.2 mph 2.5 mph 81% 0 in 0.00 W/m2 unknown
21:49 42.8 °F 37.4 °F 30 in ENE 0.6 mph 1.9 mph 81% 0 in 0.00 W/m2 unknown
21:54 42.8 °F 37.4 °F 30 in Calm   1.2 mph 80% 0 in 0.00 W/m2 unknown
21:59 42.8 °F 37.4 °F 30 in Calm     81% 0 in 0.00 W/m2 unknown
22:04 42.8 °F 37.4 °F 30 in Calm     80% 0 in 0.00 W/m2 unknown
22:09 42.8 °F 37.4 °F 30 in Calm     80% 0 in 0.00 W/m2 unknown
22:14 42.8 °F 37.4 °F 30 in NE 2.5 mph 3.7 mph 80% 0 in 0.00 W/m2 unknown
22:19 42.8 °F 37.4 °F 30 in NE 2.5 mph 3.7 mph 80% 0 in 0.00 W/m2 unknown
22:24 42.8 °F 35.6 °F 30 in ENE 2.5 mph 4.3 mph 79% 0 in 0.00 W/m2 unknown
22:29 42.8 °F 35.6 °F 30 in ENE 1.9 mph 5 mph 79% 0 in 0.00 W/m2 unknown
22:34 42.8 °F 35.6 °F 30 in ENE 2.5 mph 3.7 mph 79% 0 in 0.00 W/m2 unknown
22:39 42.8 °F 35.6 °F 30 in ENE 3.7 mph 5 mph 79% 0 in 0.00 W/m2 unknown
22:44 42.8 °F 35.6 °F 30 in ENE 3.7 mph 5 mph 79% 0 in 0.00 W/m2 unknown
22:49 42.8 °F 35.6 °F 30 in ENE 5.6 mph 6.8 mph 79% 0 in 0.00 W/m2 unknown
22:54 42.8 °F 35.6 °F 30 in ENE 5 mph 6.8 mph 79% 0 in 0.00 W/m2 unknown
22:59 42.8 °F 35.6 °F 30 in ENE 3.7 mph 6.2 mph 79% 0 in 0.00 W/m2 unknown
23:04 42.8 °F 35.6 °F 30 in ENE 3.1 mph 5 mph 80% 0 in 0.00 W/m2 unknown
23:09 41 °F 35.6 °F 30 in ENE 3.1 mph 5 mph 80% 0 in 0.00 W/m2 unknown
23:14 41 °F 35.6 °F 30 in ENE 4.3 mph 5 mph 80% 0 in 0.00 W/m2 unknown
23:19 41 °F 35.6 °F 30 in ENE 4.3 mph 5 mph 80% 0 in 0.00 W/m2 unknown
23:24 41 °F 35.6 °F 30 in ENE 3.7 mph 5 mph 81% 0 in 0.00 W/m2 unknown
23:29 41 °F 35.6 °F 30 in NE 2.5 mph 5 mph 81% 0 in 0.00 W/m2 unknown
23:34 41 °F 37.4 °F 30 in NE 1.2 mph 3.1 mph 82% 0 in 0.00 W/m2 unknown
23:39 41 °F 35.6 °F 30 in NE 1.9 mph 2.5 mph 81% 0 in 0.00 W/m2 unknown
23:44 41 °F 35.6 °F 30 in NE 1.2 mph 2.5 mph 81% 0 in 0.00 W/m2 unknown
23:49 41 °F 35.6 °F 30 in ENE 1.2 mph 1.9 mph 81% 0 in 0.00 W/m2 unknown
23:54 41 °F 35.6 °F 30 in ENE 1.9 mph 2.5 mph 82% 0 in 0.00 W/m2 unknown
23:59 41 °F 35.6 °F 30 in ENE 1.9 mph 3.7 mph 82% 0 in 0.00 W/m2 unknown
Stazione Meteorologica MeteoMincio Rivalta s/M (MN)
Con i complimenti di Weather Underground - 4 mb



METEO PILLOLE
Lo strato di neve al suolo più spesso
Tamarack, California
11,455 metri nel marzo 1911.
Share

Non seguire questo link o sarai bannato dal sito!